TimeMDT,TemperatureF,Dew PointF,Humidity,Sea Level PressureIn,VisibilityMPH,Wind Direction,Wind SpeedMPH,Gust SpeedMPH,PrecipitationIn,Events,Conditions,WindDirDegrees,DateUTC
12:53 AM,72.0,44.1,37,30.04,10.0,SW,3.5,-,N/A,,Scattered Clouds,220,2013-07-10 06:53:00
1:53 AM,66.0,44.1,45,30.06,10.0,Calm,Calm,-,N/A,,Partly Cloudy,0,2013-07-10 07:53:00
2:53 AM,63.0,48.0,58,30.06,10.0,South,8.1,-,N/A,,Partly Cloudy,190,2013-07-10 08:53:00
3:53 AM,64.0,48.0,56,30.06,10.0,West,9.2,-,N/A,,Partly Cloudy,260,2013-07-10 09:53:00
4:53 AM,63.0,48.9,60,30.06,10.0,West,3.5,-,N/A,,Scattered Clouds,280,2013-07-10 10:53:00
5:53 AM,62.1,50.0,65,30.06,10.0,Calm,Calm,-,N/A,,Mostly Cloudy,0,2013-07-10 11:53:00
6:53 AM,63.0,51.1,65,30.06,10.0,South,4.6,-,N/A,,Mostly Cloudy,190,2013-07-10 12:53:00
7:53 AM,69.1,48.9,49,30.04,10.0,Calm,Calm,-,N/A,,Mostly Cloudy,0,2013-07-10 13:53:00
8:53 AM,73.0,51.1,46,30.05,10.0,ESE,5.8,-,N/A,,Mostly Cloudy,120,2013-07-10 14:53:00
9:53 AM,79.0,48.0,34,30.03,10.0,ENE,6.9,-,N/A,,Scattered Clouds,70,2013-07-10 15:53:00
10:53 AM,84.9,48.9,29,29.99,10.0,Variable,5.8,-,N/A,,Scattered Clouds,0,2013-07-10 16:53:00
11:53 AM,88.0,46.9,24,29.97,10.0,NNW,13.8,-,N/A,,Scattered Clouds,330,2013-07-10 17:53:00
12:53 PM,86.0,50.0,29,29.95,10.0,North,15.0,-,N/A,,Mostly Cloudy,10,2013-07-10 18:53:00
1:14 PM,80.6,53.6,39,30.24,10.0,WNW,24.2,31.1,N/A,Thunderstorm,Thunderstorm,300,2013-07-10 19:14:00
1:53 PM,78.1,48.0,35,30.02,10.0,NNW,11.5,23.0,0.00,Rain-Thunderstorm,Light Thunderstorms and Rain,330,2013-07-10 19:53:00
2:06 PM,80.6,46.4,30,30.21,8.0,NE,6.9,-,0.00,Rain,Light Rain,40,2013-07-10 20:06:00
2:53 PM,82.9,52.0,34,29.99,10.0,North,8.1,18.4,0.01,,Mostly Cloudy,360,2013-07-10 20:53:00
3:53 PM,84.0,46.9,27,29.97,10.0,South,11.5,-,N/A,,Mostly Cloudy,170,2013-07-10 21:53:00
4:53 PM,84.9,46.9,27,29.95,10.0,SSE,15.0,23.0,N/A,,Scattered Clouds,160,2013-07-10 22:53:00
5:53 PM,82.9,50.0,32,29.94,10.0,South,17.3,24.2,N/A,,Mostly Cloudy,170,2013-07-10 23:53:00
6:53 PM,80.1,48.9,34,29.93,10.0,SE,18.4,24.2,N/A,,Scattered Clouds,140,2013-07-11 00:53:00
7:53 PM,78.1,51.1,39,29.91,10.0,South,13.8,-,N/A,,Scattered Clouds,170,2013-07-11 01:53:00
8:53 PM,75.9,52.0,43,29.94,10.0,SSE,13.8,25.3,N/A,,Mostly Cloudy,160,2013-07-11 02:53:00
9:53 PM,73.0,51.1,46,29.94,10.0,South,18.4,26.5,N/A,,Scattered Clouds,180,2013-07-11 03:53:00
10:53 PM,70.0,53.1,55,29.94,10.0,South,23.0,34.5,N/A,,Scattered Clouds,190,2013-07-11 04:53:00
11:53 PM,68.0,53.1,59,29.95,10.0,South,21.9,31.1,N/A,,Scattered Clouds,170,2013-07-11 05:53:00